This is the latest recevied weather packets stored in our database for station/object DD3UTS-13. If no packets are shown the sender has not sent any weather packets the latest 1 day(s).
| Time | Temp. | Humidity | Pressure | Rain* | Wind** | Luminosity | Snow |
|---|---|---|---|---|---|---|---|
| 1778059832 | 16.67° C | 67% | 1005.1 hPa | 0 mm | - | 558 W/m² | - |
| 1778059532 | 16.67° C | 65% | 1005 hPa | 0 mm | - | 260 W/m² | - |
| 1778059232 | 17.22° C | 67% | 1005 hPa | 0 mm | - | 418 W/m² | - |
| 1778058632 | 16.11° C | 69% | 1005.1 hPa | 0 mm | - | 616 W/m² | - |
| 1778058032 | 16.11° C | 68% | 1005.1 hPa | 0 mm | - | 252 W/m² | - |
| 1778057432 | 16.67° C | 69% | 1004.9 hPa | 0 mm | - | 437 W/m² | - |
| 1778056832 | 16.11° C | 70% | 1004.7 hPa | 0 mm | - | 474 W/m² | - |
| 1778056532 | 15.56° C | 69% | 1004.6 hPa | 0 mm | - | 250 W/m² | - |
| 1778056232 | 16.11° C | 70% | 1004.7 hPa | 0 mm | - | 597 W/m² | - |
| 1778055932 | 16.11° C | 70% | 1004.6 hPa | 0 mm | - | 307 W/m² | - |
| 1778055632 | 15.56° C | 71% | 1004.5 hPa | 0 mm | - | 545 W/m² | - |
| 1778054132 | 15.56° C | 72% | 1004.2 hPa | 0 mm | - | 541 W/m² | - |
| 1778053832 | 15.56° C | 72% | 1004.2 hPa | 0 mm | - | 473 W/m² | - |
| 1778053232 | 15.56° C | 73% | 1004 hPa | 0 mm | - | 496 W/m² | - |
| 1778052932 | 15.56° C | 74% | 1004.1 hPa | 0 mm | - | 452 W/m² | - |
| 1778052332 | 15.56° C | 74% | 1004.1 hPa | 0 mm | - | 443 W/m² | - |
| 1778051732 | 15.56° C | 75% | 1004.3 hPa | 0 mm | - | 493 W/m² | - |
| 1778050832 | 15.56° C | 76% | 1004.6 hPa | 0 mm | - | 367 W/m² | - |
| 1778050532 | 15° C | 76% | 1004.5 hPa | 0 mm | - | 503 W/m² | - |
| 1778049032 | 14.44° C | 76% | 1004.2 hPa | 0 mm | - | 375 W/m² | - |
| 1778048732 | 14.44° C | 77% | 1004.2 hPa | 0 mm | - | 359 W/m² | - |
| 1778048432 | 14.44° C | 77% | 1004.2 hPa | 0 mm | - | 355 W/m² | - |
| 1778047832 | 13.89° C | 79% | 1004.2 hPa | 0 mm | - | 347 W/m² | - |
| 1778047532 | 13.89° C | 79% | 1004.2 hPa | 0 mm | - | 256 W/m² | - |
| 1778046632 | 13.33° C | 80% | 1003.9 hPa | 0 mm | - | 113 W/m² | - |
* Rain latest 24 hours (hover to see other rain measurements)
** Current wind speed in m/s (hover to see current wind gust speed)